Regional Weather Roundup
Issued by NWS

Home | Current Version | Previous Version | Graphics & Text | Print | Product List | Glossary On
Versions: 1 2 3 4 5 6 7 8 9 10 11 12 13 14 15 16 17 18 19 20 21 22 23 24 25 26 27 28 29 30 31 32 33 34 35 36 37 38 39 40 41 42 43 44 45 46 47 48 49 50
000
ASUS45 KTFX 131810
RWRMT
MONTANA REGIONAL WEATHER ROUNDUP
NATIONAL WEATHER SERVICE GREAT FALLS MT
1100 AM MST WED DEC 13 2017

NOTE: "FAIR" INDICATES FEW OR NO CLOUDS BELOW 12000 FEET WITH NO
SIGNIFICANT WEATHER AND/OR OBSTRUCTIONS TO VISIBILITY.

MTZ001>007-043-131900-
WEST OF THE DIVIDE

CITY           SKY/WX    TMP DP  RH WIND       PRES   REMARKS
KALISPELL      LGT SNOW  25  22  88 CALM      30.43F FOG
MISSOULA       LGT SNOW  25  22  88 SE3       30.40S FOG
BUTTE          LGT SNOW  30  25  81 NW5       30.25F
MULLAN PASS    SNOW      22  21  96 NW6       30.29R VSB 1/2 WCI  14
ANACONDA         N/A     28  23  80 W6        30.29S WCI  22
DEER LODGE       N/A     27  27 100 W6        30.32R VSB 1/4 WCI  20
EUREKA           N/A     23  18  80 MISG      30.48F
HAMILTON         N/A     25  25 100 CALM      30.38R
LIBBY            N/A     27  25  93 CALM      30.45S
PLAINS           N/A     27  21  77 CALM      30.44R
RONAN            N/A     26  23  88 CALM      30.41R
$$

MTZ008-052>055-131900-
SOUTHWEST MONTANA

CITY           SKY/WX    TMP DP  RH WIND       PRES   REMARKS
BOZEMAN        SNOW      26  22  84 E7        30.29R VSB 1/2 WCI  18
DILLON         LGT SNOW  32  30  92 SW3       30.25F FOG
W YELLOWSTONE  LGT SNOW  18  16  93 CALM      30.28S VSB 1
ENNIS          LGT SNOW  32  30  93 SE5       30.30F
THREE FORKS      N/A     24  21  88 CALM      30.25R VSB 0
TWIN BRIDGES     N/A     31  24  75 CALM      30.22R
$$

MTZ009-010-012-014-046-048-049-054-131900-
EAST SLOPES AND CENTRAL MONTANA

CITY           SKY/WX    TMP DP  RH WIND       PRES   REMARKS
CUT BANK       FAIR      36  23  59 N9        30.26R WCI  29
GREAT FALLS    CLOUDY    33  17  51 SW10      30.27R WCI  25
MALMSTROM AFB  PTSUNNY   32  19  58 SW13      30.27R WCI  23
HELENA         LGT SNOW  23  21  92 CALM      30.30S VSB 1
BOWMANS CRNR   LGT SNOW  29  29  99 S8        30.24R WCI  21
CHOTEAU          N/A     37  19  48 N5        30.27R HAZE
FAIRFIELD      PTSUNNY   37  29  72 SW7       30.25R WCI  31
POWER          FAIR      35  19  51 W6        30.25R WCI  30
RAYNESFORD     PTSUNNY   33  22  65 CALM      30.26R
ULM            PTSUNNY   35  31  85 W7        30.28R WCI  29
$$

MTZ011-013-016-021-045-047-050-051-131900-
NORTH CENTRAL MONTANA

CITY           SKY/WX    TMP DP  RH WIND       PRES   REMARKS
HAVRE          FAIR      32  21  64 SW13      30.23R WCI  22
LEWISTOWN      FAIR      35  25  66 S3        30.21R
N BAR RANCH    FAIR      39  18  41 NW10      30.20R
CHINOOK          N/A     36  23  60 W13       30.22R WCI  27
DENTON         FAIR      36  21  54 SW3       30.19R
GEYSER         FAIR      40  20  44 W14       30.21R
GRASS RANGE    FAIR      39  20  48 W16       30.16R WCI  30
STANFORD       FAIR      39  20  47 NW13      30.20R WCI  31
WINIFRED       FAIR      35  19  52 W13       30.20R WCI  26
$$

MTZ017>020-022>027-061-062-131900-
NORTHEAST MONTANA

CITY           SKY/WX    TMP DP  RH WIND       PRES   REMARKS
GLASGOW        FAIR      36  26  67 NW16      30.13S WCI  26
GLENDIVE       FAIR      37  25  61 NW23      30.09F WCI  26
JORDAN           N/A     39  24  55 W8        30.15S
SIDNEY         FAIR      36  26  67 NW18      30.06F WCI  26
WOLF POINT     FAIR      38  27  64 W10       30.12R WCI  31
MALTA          SUNNY     37  25  60 W13       30.18S WCI  29
PLENTYWOOD       N/A     37  27  65 NW17G24   30.03F WCI  28
POPLAR           N/A     37  27  65 NW8       30.10F WCI  31
SCOBEY           N/A     36  22  57 NW12      30.05R WCI  28
$$

MTZ028>42-056>058-131900-
SOUTHCENTRAL AND SOUTHEAST MONTANA

CITY           SKY/WX    TMP DP  RH WIND       PRES   REMARKS
BAKER          FAIR     N/A N/A N/A MISG      30.08S
BILLINGS       CLOUDY    39  19  44 SW8       30.19S
LIVINGSTON     CLOUDY    35  23  61 NW10      30.24R WCI  27
MILES CITY     FAIR      42  24  49 NW21G26   30.13F
BIG TIMBER     SUNNY     39  21  48 W24G31    30.22S WCI  28
EKALAKA          N/A     35  23  62 W18       30.05S WCI  24
FORSYTH          N/A     41  21  45 W12       30.16F
LAUREL           N/A     39  18  41 SW8       30.21R
ROUNDUP          N/A     36  15  42 SW6       30.08  WCI  31
$$

REGIONAL REPORTS...DAKOTAS

CITY           SKY/WX    TMP DP  RH WIND       PRES   REMARKS
WILLISTON      FAIR      39  26  59 NW22G31   30.04R WCI  29
MINOT          CLOUDY    36  27  69 NW20G28   29.92S WCI  25
DICKINSON      FAIR      36  25  64 NW21G32   29.97F WCI  25
BEACH          FAIR      36  27  69 MISG      30.08S
CROSBY         CLOUDY    34  28  80 NW16G23   30.01S WCI  23
TIOGA          CLOUDY    32  30  93 NW22G28   30.00R WCI  19
WATFORD CITY   FAIR      36  27  69 NW21G28   30.02S WCI  24
BISMARCK       CLOUDY    36  26  67 NW23G30   29.94S WCI  24
GRAND FORKS    CLOUDY    26  24  92 N28G38    29.79S WCI  10
FARGO          CLOUDY    28  26  92 N20G26    29.78S WCI  15
BUFFALO SD       N/A     39  26  59 W23G30    29.99F WCI  28
RAPID CITY     FAIR      44  21  40 NW32G40   30.03F
$$

REGIONAL REPORTS...WYOMING/IDAHO/WASHINGTON

CITY           SKY/WX    TMP DP  RH WIND       PRES   REMARKS
GILLETTE       FAIR      42  17  36 NW15      30.12F
SHERIDAN       FAIR      47  17  30 NW17      30.14F
BUFFALO WY     FAIR      46  12  25 N14       30.14F
CODY           FAIR      39  14  36 CALM      30.19S
YELLOWSTONE LA   N/A     20  17  88 CALM      30.26R
IDAHO FALLS    CLOUDY    22  20  92 SE3       30.36R FOG
SALMON         LGT SNOW  23  19  85 CALM      30.40F FOG
BOISE          CLOUDY    23  20  88 CALM      30.43F FOG
SPOKANE        PTSUNNY   27  24  89 CALM      30.46S
$$

REGIONAL REPORTS...ALBERTA

CITY           SKY/WX    TMP DP  RH WIND       PRES   REMARKS
EDMONTON       MOSUNNY   37  27  65 W13G18    30.17R WCI  29
CALGARY        PTSUNNY   37  19  48 S2        30.24R
LETHBRIDGE     PTSUNNY   36  19  51 W9        30.26S WCI  29
MEDICINE HAT   CLOUDY    39  27  60 W10       30.22R
$$

REGIONAL REPORTS...SASKATCHEWAN

CITY           SKY/WX    TMP DP  RH WIND       PRES   REMARKS
SWIFT CURRENT  PTSUNNY   30  27  86 W21G26    30.08S WCI  17
REGINA         MOSUNNY   34  28  80 W14       30.01S WCI  24
SASKATOON      PTSUNNY   32  27  80 NW14      30.03F WCI  22
$$



USA.gov is the U.S. government's official web portal to all federal, state and local government web resources and services.